Location: Losili
(4.4086°N, 32.7049°E)
Time: 09:34:37
(UTC+00:00)

CORIOLIS - Pass Details

Date: 18 September 2019
Orbit: 818 x 839 km, 98.7° (Epoch: 18 October)

Event Time Altitude Azimuth Distance (km) Brightness Sun altitude
Rises 15:56:29 0° 170° (S) 3,378 7.2 -3.1°
Reaches altitude 10° 15:58:51 10° 172° (S) 2,440 6.5 -3.7°
Maximum altitude 16:04:15 77° 257° (WSW) 852 4.4 -5.1°
Drops below altitude 10° 16:09:37 10° 343° (NNW) 2,420 6.9 -6.4°
Sets 16:11:57 0° 345° (NNW) 3,349 7.6 -7.0°
